IUS DEB, 43361

Orbit data source: Space-Track

IUS DEB, 43361 is space debris originally from a launch on Fri, 23 Jul 1999 UTC launched from the Air Force Eastern Test Range (AFETR). Debris objects in space refer to the collection of defunct objects orbiting the Earth. Examples of debris include non-operational satellites, rocket bodies, and fragments generated from explosions, collisions, or faulty payload assembly.

Loading next visibility...
Identifier
43361, 1999-040J
Orbit
Active
Country
Flag of USUS
Related business
Manufacturer
Boeing/Kent
Mission
Spacecraft
Bus & Motor
Unknown
Mass
Unknown
Launch date (UTC)
1999-07-23 (27 years ago)
Launch vehicle
Unknown
Launch site
Air Force Eastern Test Range (AFETR)
Object type
Payload
Rocket body
Debris
Shape & HBR
Unknown shape, 0.1 m
Radar Cross Section
Medium (>0.1 m² and <1 m²)

Expand to show TLE details & history
Last TLE update: 1 month ago

TLE from 1 month ago
0 IUS DEB
1 43361U 99040J   26144.36779561  .00000071  00000-0  13898-2 0  9999
2 43361  27.8075 158.9485 3280661 209.8191 126.6735  7.20653260116801
Epoch: 2026-05-24T08:49Z
TLE epoch observation values (Epoch: 2026-05-24T08:49:37.540Z)
Latitude
0.00003°
Longitude
144.57119°
Altitude
7,745.155 km
Speed
4.61 km/s
True Right ascension
10h 35m 47s
True Declination
0° 00' 00"
Sunlit
Object was in daylight at epoch
Visualization orbit readout
Latitude
Unknown
Longitude
Unknown
Altitude
Unknown
Speed
Unknown
Apparent Right ascension
Unknown
Apparent Declination
Unknown
Sunlit
N/A
Visualization observer readout
Local Sidereal Time
21:38:49
Azimuth
Unknown
Elevation
Unknown
Doppler factor
Unknown
Orbital elements
Apogee altitude
8,662.173 km
Perigee altitude
1,231.495 km
Semi-major axis
11,324.971 km
Eccentricity
0.32807
Inclination
27.8075°
RAAN
158.9485°
Arg. of periapsis
209.8191°
True anomaly
150.21766°
Mean anomaly
126.6735°
Eccentric anomaly
139.00426°
Mean motion
1.80089 °/min
Orbital period
199.9 mins
BSTAR
0.0013898
Loading maneuver chart data...
Computing Atmospheric mass density...
Loading historical data...
Loading historical data...
Loading historical data...
Loading historical data...
Loading historical data...
Loading historical data...
Loading historical data...

Documentation

Showing up to 5 results
|